Location: Arroyo de Valdeoliva
(40.1604°N, 4.9878°W)
Time: 18:45:10
(UTC+00:00)

Landsat 7 - Pass Details

Date: 11 December 2025
Orbit: 680 x 682 km, 97.9° (Epoch: 15 January)

Event Time Altitude Azimuth Distance (km) Brightness Sun altitude
Rises 17:40:03 0° 157° (SSE) 3,028 7.1 -8.7°
Reaches altitude 10° 17:42:17 10° 154° (SSE) 2,118 6.3 -9.1°
Maximum altitude 17:46:52 62° 74° (ENE) 770 3.8 -9.9°
Drops below altitude 10° 17:51:28 10° 355° (N) 2,133 6.2 -10.7°
Sets 17:53:43 0° 352° (N) 3,052 7.0 -11.1°
